Home > Weather > Sheboygan > Past weeks

Flag for USA Past Weather in Sheboygan, Wisconsin, USA — Yesterday and Last 2 Weeks

Now
80 °F

Sunny.


Feels Like: 82 °F
Forecast: 63 / 76 °F
Wind: 10 mph from South

Location: Sheboygan County Memorial Airport

Current Time: Aug 29, 2016 at 4:55:40 PM

Latest Report: Aug 29, 2016 at 3:53 PM


Visibility: 10 mi

Pressure: 30.19 "Hg

Humidity: 62%

Dew Point: 66 °F

Location of SheboyganLocation

Past Weather in Sheboygan — Graph

°F

Sheboygan Temperature Yesterday

Maximum temperature yesterday: 78 °F (at 12:53 PM)
Minimum temperature yesterday: 61 °F (at 10:52 PM)
Average temperature yesterday: 68 °F

High & Low Weather Summary for the Past Weeks

 TemperatureHumidityPressure
High85 °F (Aug 18, 12:53 PM)100% (Aug 29, 3:53 AM)30.27 "Hg (Aug 29, 3:53 AM)
Low50 °F (Aug 22, 5:53 AM)43% (Aug 14, 3:53 PM)29.51 "Hg (Aug 20, 3:53 PM)
Average70 °F78%30.00 "Hg
* Reported Aug 14 2:53 PM — Aug 29 2:53 PM, Sheboygan, Weather by CustomWeather, © 2016

Note: Actual official high and low records may vary slightly from our data, if they occured in-between our weather recording intervals... More about our weather records

Advertising

Sheboygan Weather History for the Previous 24 Hours

Scroll right to see more
 ConditionsComfort  
Time TempWeatherWind HumidityBarometerVisibility
2:53 PM
Mon, Aug 29
81 °FSunny.7 mph58%30.21 "Hg10 mi
1:53 PM80 °FSunny.7 mph67%30.23 "Hg10 mi
12:53 PM79 °FPassing clouds.3 mph74%30.25 "Hg10 mi
11:53 AM78 °FSunny.7 mph71%30.27 "Hg10 mi
10:53 AM76 °FSunny.3 mph74%30.27 "Hg10 mi
9:53 AM73 °FSunny.3 mph79%30.27 "Hg10 mi
8:53 AM68 °FPartly sunny.No wind93%30.26 "Hg8 mi
7:53 AM65 °FFog.No wind94%30.25 "Hg0 mi
6:53 AM60 °FFog.No wind96%30.25 "Hg0 mi
5:53 AM59 °FFog.No wind96%30.25 "Hg1 mi
4:53 AM59 °FFog.No wind93%30.24 "Hg0 mi
3:53 AM58 °FFog.No wind100%30.24 "Hg1 mi
2:53 AM60 °FFog.No wind96%30.23 "Hg1 mi
1:53 AM60 °FFog.No wind96%30.23 "Hg1 mi
1:02 AM60 °FFog.3 mph96%30.24 "Hg1 mi
12:58 AM60 °FFog.3 mph93%30.24 "Hg1 mi
12:03 AM60 °FFog.No wind96%30.24 "Hg1 mi
11:01 PM
Sun, Aug 28
61 °FFog.No wind97%30.23 "Hg1 mi
10:52 PM61 °FFog.No wind97%30.22 "Hg2 mi
9:53 PM63 °FFog.No wind93%30.22 "Hg1 mi
8:57 PM63 °FFog.No wind93%30.22 "Hg1 mi
7:53 PM66 °FSunny.No wind90%30.20 "Hg10 mi
6:53 PM70 °FSunny.5 mph81%30.19 "Hg10 mi
5:53 PM73 °FSunny.5 mph74%30.19 "Hg10 mi
4:53 PM74 °FSunny.12 mph74%30.19 "Hg10 mi
Weather by CustomWeather, © 2016

See weather overviewHow to use our weather pages